Location: Fort Worth, Tx
(32.7431°N, 97.3695°W)
Time: 10:05:37
(UTC-04:00)

BUGSAT 1 - Visible Passes

Search period start: 21 March 2023 00:00
Search period end: 31 March 2023 00:00
Orbit: 550 x 592 km, 98.1° (Epoch: 21 March)

Date Brightness Start Highest point End Pass type
(mag) Time Alt. Az. Time Alt. Az. Time Alt. Az.
21 Mar ? 21:24:07 10° SW 21:27:11 20° W 21:30:17 10° NW visible
22 Mar ? 21:26:24 10° SW 21:29:23 19° W 21:32:21 10° NW visible
23 Mar ? 21:28:42 10° SW 21:31:32 18° W 21:34:24 10° NW visible
24 Mar ? 21:30:59 10° SW 21:33:43 17° W 21:36:26 10° NW visible
25 Mar ? 21:33:16 10° SW 21:35:52 16° W 21:38:27 10° NW visible
26 Mar ? 21:35:33 10° SW 21:38:00 15° W 21:40:27 10° WNW visible
27 Mar ? 21:37:50 10° SW 21:40:07 14° W 21:42:24 10° WNW visible
28 Mar ? 21:40:08 10° SW 21:42:14 14° W 21:44:20 10° WNW visible
29 Mar ? 21:42:27 10° WSW 21:44:20 13° W 21:46:14 10° WNW visible
30 Mar ? 21:44:46 10° WSW 21:46:25 12° W 21:48:04 10° WNW visible
